Tracking 19794 objects as of 21-Jul-2019
HD Live streaming from Space Station
objects crossing your sky now

COSMOS 1275 DEB

Track COSMOS 1275 DEB now!
10-day predictions


NORAD ID: 14406
Int'l Code: 1981-053JE
Perigee: 847.5 km
Apogee: 897.6 km
Inclination: 82.8 °
Period: 102.3 minutes
Semi major axis: 7243 km
RCS: 0.0178 m2 (small)
Launch date: June 4, 1981
Source: Commonwealth of Independent States (former USSR) (CIS)
Launch site: PLESETSK MISSILE AND SPACE COMPLEX (PKMTR)

Note: This is SATELLITE DEBRIS
aabbcc
Your satellite tracking list
Your tracking list is empty




NASA's NSSDC Master Catalog

Two Line Element Set (TLE):
1 14406U 81053JB  19201.62311064  .00000433  00000-0  24275-3 0  9991
2 14406  82.8408 244.3674 0034529 103.2250  24.4981 14.08238086865864
Source of the keplerian elements: AFSPC